Location: Newark
(25.0000°N, 73.5000°E)
Time: 19:29:43
(UTC+00:00)

Altair - Pass Details

Date: 10 March 2021
Orbit: 1501 x 1683 km, 47.2° (Epoch: 10 April)

Event Time Altitude Azimuth Distance (km) Brightness Sun altitude
Rises 11:58:00 0° 254° (WSW) 4,637 11.9 15.9°
Reaches altitude 10° 12:01:20 10° 262° (W) 3,649 12.4 15.2°
Maximum altitude 12:09:39 38° 328° (NNW) 2,148 8.7 13.3°
Drops below altitude 10° 12:18:05 10° 34° (NE) 3,684 9.1 11.4°
Sets 12:21:30 0° 43° (NE) 4,686 9.6 10.7°
